Location: Unspecified
(0.0000°N, 0.0000°E)
Time: 01:17:57
(UTC+02:00)

NATO 3D Rocket - Visible Passes

Search period start: 25 May 2015 00:00
Search period end: 04 June 2015 00:00
Orbit: 670 x 2297 km, 21.5° (Epoch: 21 May)

Date Brightness Start Highest point End Pass type
(mag) Time Alt. Az. Time Alt. Az. Time Alt. Az.
25 May 6.7 04:11:24 27° N 04:14:58 31° NNE 04:26:36 10° ENE visible
25 May 6.3 06:09:30 10° NW 06:22:16 55° NNE 06:35:49 10° E visible
25 May 4.3 20:55:04 10° W 20:59:40 48° NNW 21:05:12 10° NE visible
25 May 6.1 22:59:32 10° WNW 23:02:24 19° NNW 23:02:24 19° NNW visible
26 May 6.9 03:18:20 24° NNE 03:18:20 24° NNE 03:26:11 10° ENE visible
26 May 6.4 05:13:55 17° NW 05:23:12 46° NNE 05:36:31 10° E visible
26 May 6.0 07:16:24 10° WNW 07:30:17 82° NNE 07:43:49 10° ESE visible
26 May 5.6 22:02:22 10° WNW 22:06:24 22° NNW 22:09:27 16° NNE visible
27 May 7.5 02:25:23 10° NE 02:25:23 10° NE 02:25:36 10° NE visible
27 May 6.4 04:20:59 32° N 04:24:18 37° NNE 04:36:40 10° E visible
27 May 6.0 06:18:15 10° WNW 06:31:11 70° NNE 06:45:13 10° ESE visible
27 May 5.2 21:05:10 10° WNW 21:09:12 27° NNW 21:13:48 10° NE visible
27 May 6.4 23:10:38 10° NW 23:12:00 13° NNW 23:12:00 13° NNW visible
28 May 6.7 03:28:10 28° NE 03:28:10 28° NE 03:36:23 10° ENE visible
28 May 6.1 05:23:46 23° NW 05:32:12 58° NNE 05:46:05 10° E visible
28 May 5.9 07:25:23 10° WNW 07:39:04 80° SSW 07:52:47 10° ESE visible
28 May 6.1 22:13:24 10° NW 22:16:11 14° N 22:18:54 11° NNE visible
29 May 7.4 02:35:25 11° ENE 02:35:25 11° ENE 02:35:48 10° ENE visible
29 May 6.1 04:31:01 42° N 04:33:26 47° NNE 04:46:27 10° E visible
29 May 5.8 06:27:11 10° WNW 06:39:59 87° NNE 06:54:17 10° ESE visible
29 May 5.8 21:15:51 10° NW 21:18:51 16° NNW 21:22:02 10° NNE visible
30 May 6.5 03:38:21 32° NE 03:38:21 32° NE 03:46:24 10° E visible
30 May 5.7 05:33:57 31° NW 05:41:03 74° NNE 05:55:17 10° ESE visible
30 May 5.6 20:18:06 10° WNW 20:21:44 21° NNW 20:25:22 10° NNE visible
31 May 7.4 02:45:41 11° ENE 02:45:41 11° ENE 02:46:03 10° ENE visible
31 May 5.6 04:41:18 59° N 04:42:23 60° NNE 04:55:52 10° E visible
31 May 5.7 06:36:55 12° WNW 06:48:50 74° SSW 07:03:04 10° ESE visible
01 Jun 6.4 03:48:38 34° ENE 03:48:38 34° ENE 03:56:05 10° E visible
01 Jun 5.5 05:44:16 40° WNW 05:49:54 87° SSW 06:04:10 10° ESE visible
01 Jun 5.9 20:29:09 10° NW 20:31:19 13° NNW 20:33:24 10° N visible
02 Jun 7.4 02:55:57 10° E 02:55:57 10° E 02:56:03 10° E visible
02 Jun 5.3 04:51:33 78° NE 04:51:33 78° NE 05:04:55 10° ESE visible
02 Jun 5.8 06:47:10 15° W 06:57:48 58° SSW 07:11:39 10° SE visible
03 Jun 6.4 03:58:48 34° E 03:58:48 34° E 04:05:24 10° ESE visible
03 Jun 5.5 05:54:25 44° W 05:58:51 68° SSW 06:12:48 10° ESE visible
